Location: Unnamed
(47.6264°N, 122.3366°W)
Time: 21:16:14
(UTC-07:00)

ELYUSIUM/LOWER FREE FLYE - Pass Details

Date: 05 August 2020
Orbit: 571 x 589 km, 97.7° (Epoch: 21 September)

Event Time Altitude Azimuth Distance (km) Brightness Sun altitude
Exits shadow 22:34:32 33° 134° (SE) 978 ? -16.4°
Maximum altitude 22:36:07 55° 72° (ENE) 691 ? -16.6°
Drops below altitude 10° 22:40:07 10° 355° (N) 1,893 ? -17.0°
Sets 22:42:18 0° 351° (N) 2,799 ? -17.3°
